Radiation Dose at Monitoring Post of Fukushima Daini Nuclear Power Station
Date,Time,MP-1(microSv/h),MP-2(microSv/h),MP-3(microSv/h),MP-4(microSv/h),MP-5(microSv/h),MP-6(microSv/h),MP-7(microSv/h),Wind Direction,Wind Velocity(m/s),Rain
2024/04/26,00:00,0.146,0.128,0.206,0.193,0.204,0.114,0.075,east-southeast,1.4,No
2024/04/26,00:10,0.146,0.128,0.205,0.193,0.206,0.115,0.075,southeast,1.1,No
2024/04/26,00:20,0.146,0.128,0.206,0.192,0.204,0.115,0.075,-,CALM,No
2024/04/26,00:30,0.145,0.128,0.206,0.193,0.206,0.115,0.075,east,1.7,No
2024/04/26,00:40,0.147,0.128,0.208,0.193,0.204,0.115,0.075,east,3.2,No
2024/04/26,00:50,0.145,0.127,0.206,0.192,0.205,0.115,0.075,east-northeast,2.1,No
2024/04/26,01:00,0.146,0.127,0.207,0.193,0.205,0.115,0.075,east-northeast,2.0,No
2024/04/26,01:10,0.146,0.128,0.207,0.193,0.204,0.115,0.075,north-northwest,1.4,No
2024/04/26,01:20,0.145,0.128,0.207,0.191,0.205,0.114,0.075,northwest,1.1,No
2024/04/26,01:30,0.146,0.128,0.207,0.193,0.204,0.115,0.075,west-northwest,1.3,No
2024/04/26,01:40,0.145,0.129,0.206,0.193,0.205,0.115,0.075,north-northwest,1.2,No
2024/04/26,01:50,0.146,0.127,0.207,0.192,0.204,0.115,0.075,northwest,2.3,No
2024/04/26,02:00,0.146,0.127,0.206,0.193,0.205,0.114,0.075,northwest,2.8,No
2024/04/26,02:10,0.146,0.128,0.207,0.193,0.205,0.115,0.076,northwest,2.3,No
2024/04/26,02:20,0.146,0.128,0.206,0.193,0.204,0.115,0.074,west-northwest,0.6,No
2024/04/26,02:30,0.145,0.127,0.207,0.192,0.206,0.115,0.075,west-southwest,0.7,No
2024/04/26,02:40,0.145,0.128,0.206,0.194,0.203,0.116,0.075,-,CALM,No
2024/04/26,02:50,0.146,0.128,0.208,0.192,0.204,0.115,0.075,-,CALM,No
2024/04/26,03:00,0.146,0.127,0.206,0.193,0.206,0.115,0.075,south,0.7,No
2024/04/26,03:10,0.146,0.128,0.208,0.193,0.204,0.114,0.075,south-southeast,0.6,No
2024/04/26,03:20,0.147,0.128,0.207,0.192,0.204,0.114,0.075,south-southwest,0.6,No
2024/04/26,03:30,0.146,0.128,0.206,0.192,0.205,0.115,0.075,south-southeast,0.7,No
2024/04/26,03:40,0.145,0.128,0.207,0.193,0.204,0.114,0.076,south-southeast,0.8,No
2024/04/26,03:50,0.146,0.128,0.207,0.193,0.205,0.115,0.075,southeast,1.6,No
2024/04/26,04:00,0.145,0.128,0.206,0.193,0.204,0.115,0.075,south-southeast,2.7,No
2024/04/26,04:10,0.146,0.128,0.207,0.193,0.204,0.115,0.075,south-southeast,1.5,No
2024/04/26,04:20,0.146,0.128,0.208,0.192,0.205,0.115,0.075,south-southeast,1.4,No
2024/04/26,04:30,0.146,0.128,0.207,0.194,0.204,0.116,0.075,south-southeast,0.9,No
2024/04/26,04:40,0.145,0.128,0.208,0.192,0.207,0.115,0.075,south-southwest,0.9,No
2024/04/26,04:50,0.146,0.128,0.206,0.192,0.204,0.115,0.075,southeast,1.5,No
2024/04/26,05:00,0.146,0.127,0.206,0.192,0.204,0.115,0.075,south-southeast,1.0,No
2024/04/26,05:10,0.146,0.127,0.205,0.192,0.205,0.115,0.076,southeast,1.3,No
2024/04/26,05:20,0.146,0.128,0.207,0.192,0.203,0.115,0.075,south-southwest,0.6,No
2024/04/26,05:30,0.146,0.127,0.207,0.193,0.205,0.115,0.075,west,1.0,No
2024/04/26,05:40,0.148,0.127,0.206,0.193,0.204,0.114,0.075,west,0.8,No
2024/04/26,05:50,0.146,0.128,0.205,0.191,0.205,0.114,0.074,west-southwest,1.4,No
2024/04/26,06:00,0.146,0.128,0.207,0.192,0.206,0.114,0.076,west,2.5,No
2024/04/26,06:10,0.145,0.128,0.206,0.193,0.204,0.114,0.075,west,3.1,No
2024/04/26,06:20,0.145,0.127,0.207,0.192,0.206,0.115,0.074,west-northwest,2.9,No
2024/04/26,06:30,0.145,0.128,0.207,0.193,0.204,0.114,0.075,west,4.3,No
2024/04/26,06:40,0.146,0.127,0.206,0.192,0.206,0.114,0.075,west,4.7,No
2024/04/26,06:50,0.147,0.128,0.206,0.191,0.202,0.115,0.074,west,4.1,No
2024/04/26,07:00,0.146,0.127,0.208,0.191,0.205,0.115,0.075,west,2.6,No
2024/04/26,07:10,0.145,0.127,0.205,0.192,0.204,0.114,0.075,west,1.6,No
2024/04/26,07:20,0.146,0.128,0.207,0.191,0.205,0.115,0.075,west,1.0,No
2024/04/26,07:30,0.146,0.126,0.206,0.192,0.203,0.114,0.074,southwest,0.9,No
2024/04/26,07:40,0.145,0.127,0.203,0.190,0.205,0.115,0.074,southwest,1.2,No
2024/04/26,07:50,0.146,0.127,0.206,0.188,0.204,0.115,0.075,south-southeast,2.0,No
2024/04/26,08:00,0.144,0.127,0.205,0.192,0.204,0.115,0.075,southeast,3.7,No
2024/04/26,08:10,0.146,0.127,0.204,0.191,0.206,0.114,0.074,southeast,3.4,No
2024/04/26,08:20,0.145,0.127,0.204,0.190,0.203,0.115,0.073,southeast,3.3,No
2024/04/26,08:30,0.144,0.127,0.206,0.191,0.206,0.114,0.075,southeast,2.5,No
2024/04/26,08:40,0.145,0.128,0.206,0.193,0.204,0.114,0.075,southeast,2.9,No
2024/04/26,08:50,0.145,0.127,0.205,0.192,0.202,0.113,0.074,southeast,2.6,No
2024/04/26,09:00,0.145,0.127,0.204,0.190,0.206,0.114,0.074,southeast,2.0,No
2024/04/26,09:10,0.145,0.128,0.203,0.190,0.205,0.116,0.076,south-southeast,2.9,No
2024/04/26,09:20,0.146,0.127,0.204,0.193,0.202,0.114,0.076,south-southeast,3.6,No
2024/04/26,09:30,0.146,0.127,0.206,0.193,0.202,0.114,0.075,south-southeast,4.9,No
2024/04/26,09:40,0.145,0.127,0.208,0.192,0.202,0.114,0.074,south-southeast,6.3,No
2024/04/26,09:50,0.143,0.128,0.206,0.191,0.204,0.114,0.074,south-southeast,6.7,No
2024/04/26,10:00,0.144,0.127,0.205,0.188,0.204,0.115,0.075,south-southeast,7.8,No
2024/04/26,10:10,0.146,0.127,0.206,0.190,0.203,0.114,0.075,south-southeast,8.1,No
2024/04/26,10:20,0.146,0.126,0.205,0.190,0.201,0.114,0.075,south-southeast,7.5,No
2024/04/26,10:30,0.146,0.126,0.206,0.192,0.202,0.115,0.074,south-southeast,9.6,No
2024/04/26,10:40,0.145,0.129,0.204,0.193,0.203,0.114,0.075,south-southeast,8.8,No
2024/04/26,10:50,0.145,0.128,0.205,0.192,0.205,0.114,0.075,south,9.2,No
2024/04/26,11:00,0.144,0.128,0.205,0.191,0.205,0.115,0.075,south,8.2,No
2024/04/26,11:10,0.144,0.127,0.204,0.190,0.204,0.115,0.075,south-southeast,10.7,No
2024/04/26,11:20,0.144,0.126,0.204,0.191,0.202,0.116,0.075,south-southeast,11.1,No
2024/04/26,11:30,0.146,0.127,0.205,0.190,0.201,0.115,0.074,south,9.8,No
2024/04/26,11:40,0.147,0.128,0.205,0.193,0.202,0.114,0.075,south-southeast,10.0,No
2024/04/26,11:50,0.145,0.128,0.205,0.194,0.205,0.114,0.075,south,10.4,No
2024/04/26,12:00,0.145,0.127,0.205,0.193,0.207,0.115,0.074,south-southeast,10.3,No
2024/04/26,12:10,0.144,0.126,0.206,0.192,0.204,0.115,0.074,south,10.7,No
2024/04/26,12:20,0.144,0.127,0.205,0.192,0.204,0.114,0.075,south,10.0,No
2024/04/26,12:30,0.144,0.128,0.205,0.190,0.202,0.114,0.075,south,9.3,No
2024/04/26,12:40,0.145,0.128,0.206,0.190,0.203,0.114,0.075,south-southeast,9.8,No
2024/04/26,12:50,0.144,0.128,0.207,0.194,0.202,0.116,0.074,south,10.6,No
2024/04/26,13:00,0.145,0.127,0.207,0.194,0.202,0.115,0.075,south,10.0,No
2024/04/26,13:10,0.147,0.127,0.206,0.194,0.203,0.114,0.075,south,8.7,No
2024/04/26,13:20,0.148,0.127,0.206,0.192,0.203,0.115,0.074,south-southeast,9.8,No
2024/04/26,13:30,0.147,0.128,0.207,0.192,0.207,0.114,0.074,south,9.5,No
2024/04/26,13:40,0.146,0.129,0.207,0.191,0.206,0.115,0.076,south-southeast,10.1,No
2024/04/26,13:50,0.145,0.129,0.206,0.191,0.205,0.115,0.075,south-southeast,10.6,No
2024/04/26,14:00,0.145,0.128,0.207,0.196,0.204,0.115,0.075,south-southeast,10.3,No
2024/04/26,14:10,0.145,0.127,0.210,0.195,0.203,0.115,0.074,south,10.3,No
2024/04/26,14:20,0.147,0.126,0.210,0.193,0.202,0.116,0.075,south-southeast,9.8,No
2024/04/26,14:30,0.147,0.128,0.208,0.192,0.203,0.115,0.074,south-southeast,9.8,No
2024/04/26,14:40,0.146,0.128,0.207,0.192,0.203,0.114,0.075,south-southeast,8.1,No
2024/04/26,14:50,0.144,0.128,0.207,0.193,0.207,0.114,0.075,south-southeast,8.7,No
2024/04/26,15:00,0.144,0.128,0.206,0.194,0.206,0.115,0.075,south,9.0,No
2024/04/26,15:10,0.144,0.127,0.206,0.193,0.206,0.116,0.074,south,9.8,No
2024/04/26,15:20,0.147,0.129,0.208,0.191,0.203,0.115,0.076,south-southeast,10.9,No
2024/04/26,15:30,0.147,0.129,0.209,0.193,0.202,0.114,0.074,south,8.8,No
2024/04/26,15:40,0.146,0.128,0.207,0.194,0.203,0.115,0.076,south,9.0,No
2024/04/26,15:50,0.145,0.129,0.207,0.192,0.206,0.116,0.075,south,7.6,No
2024/04/26,16:00,0.146,0.129,0.210,0.195,0.206,0.114,0.074,south,8.1,No
2024/04/26,16:10,0.147,0.128,0.207,0.195,0.204,0.115,0.075,south,8.6,No
2024/04/26,16:20,0.145,0.128,0.209,0.193,0.204,0.115,0.075,south-southeast,7.1,No
2024/04/26,16:30,0.146,0.128,0.209,0.193,0.205,0.115,0.075,south,7.0,No
2024/04/26,16:40,0.147,0.129,0.207,0.194,0.205,0.115,0.075,south,7.6,No
2024/04/26,16:50,0.145,0.129,0.208,0.193,0.205,0.115,0.075,south-southeast,7.0,No
2024/04/26,17:00,0.147,0.128,0.208,0.195,0.206,0.115,0.076,south,6.6,No
2024/04/26,17:10,0.146,0.128,0.209,0.192,0.206,0.116,0.075,south,7.6,No
2024/04/26,17:20,0.145,0.128,0.208,0.194,0.204,0.115,0.076,south,5.8,No
2024/04/26,17:30,0.147,0.129,0.208,0.194,0.206,0.115,0.075,south,5.8,No
2024/04/26,17:40,0.146,0.128,0.208,0.194,0.205,0.115,0.076,south,7.5,No
2024/04/26,17:50,0.147,0.128,0.208,0.194,0.206,0.114,0.075,south,8.3,No
2024/04/26,18:00,0.146,0.129,0.209,0.194,0.206,0.115,0.075,south-southeast,8.1,No
2024/04/26,18:10,0.146,0.129,0.208,0.195,0.204,0.114,0.075,south,7.5,No
2024/04/26,18:20,0.147,0.128,0.209,0.193,0.206,0.116,0.075,south,7.3,No
2024/04/26,18:30,0.147,0.128,0.208,0.195,0.205,0.115,0.075,south,8.1,No
2024/04/26,18:40,0.147,0.128,0.209,0.194,0.206,0.115,0.075,south,8.3,No
2024/04/26,18:50,0.145,0.129,0.207,0.195,0.204,0.115,0.075,south,7.6,No
2024/04/26,19:00,0.147,0.129,0.209,0.194,0.206,0.115,0.075,south,5.6,No
2024/04/26,19:10,0.145,0.129,0.207,0.194,0.206,0.115,0.075,south-southwest,5.9,No
2024/04/26,19:20,0.147,0.129,0.208,0.194,0.205,0.115,0.075,south,7.2,No
2024/04/26,19:30,0.146,0.128,0.207,0.195,0.205,0.115,0.075,south-southwest,6.4,No
2024/04/26,19:40,0.147,0.129,0.209,0.193,0.205,0.115,0.075,south-southwest,7.7,No
2024/04/26,19:50,0.146,0.128,0.207,0.195,0.206,0.115,0.075,south-southwest,5.9,No
2024/04/26,20:00,0.148,0.128,0.210,0.193,0.204,0.115,0.075,south-southwest,5.9,No
2024/04/26,20:10,0.145,0.129,0.207,0.194,0.207,0.116,0.075,south,6.0,No
2024/04/26,20:20,0.147,0.128,0.208,0.194,0.204,0.115,0.075,south,5.3,No
2024/04/26,20:30,0.146,0.129,0.208,0.194,0.206,0.116,0.075,south,5.2,No
2024/04/26,20:40,0.147,0.129,0.209,0.194,0.204,0.115,0.074,south,5.8,No
2024/04/26,20:50,0.147,0.129,0.208,0.194,0.206,0.114,0.075,south,6.1,No
2024/04/26,21:00,0.146,0.129,0.208,0.194,0.204,0.116,0.075,south,5.4,No
2024/04/26,21:10,0.147,0.128,0.207,0.193,0.206,0.114,0.075,south,5.4,No
2024/04/26,21:20,0.145,0.129,0.209,0.196,0.205,0.114,0.075,south,5.6,No
2024/04/26,21:30,0.147,0.129,0.208,0.193,0.205,0.115,0.075,south,6.5,No
2024/04/26,21:40,0.146,0.129,0.210,0.195,0.205,0.115,0.075,south,6.3,No
2024/04/26,21:50,0.148,0.128,0.207,0.194,0.205,0.116,0.076,south,6.7,No
2024/04/26,22:00,0.146,0.128,0.209,0.195,0.207,0.114,0.075,south,6.6,No
2024/04/26,22:10,0.147,0.129,0.208,0.194,0.205,0.115,0.075,south,6.8,No
2024/04/26,22:20,0.146,0.127,0.209,0.195,0.206,0.115,0.075,south,6.2,No
2024/04/26,22:30,0.147,0.129,0.207,0.193,0.203,0.116,0.075,south,5.9,No
2024/04/26,22:40,0.146,0.128,0.208,0.194,0.206,0.116,0.075,south,6.4,No
2024/04/26,22:50,0.147,0.129,0.207,0.195,0.205,0.115,0.076,south,5.5,No
2024/04/26,23:00,0.147,0.128,0.209,0.194,0.206,0.116,0.075,south,7.6,No
2024/04/26,23:10,0.146,0.128,0.208,0.195,0.205,0.115,0.075,south,7.7,No
2024/04/26,23:20,0.148,0.129,0.208,0.194,0.205,0.116,0.075,south,7.3,No
2024/04/26,23:30,0.146,0.128,0.208,0.194,0.206,0.113,0.076,south,7.8,No
2024/04/26,23:40,0.147,0.129,0.210,0.195,0.205,0.115,0.076,south,5.8,No
2024/04/26,23:50,0.146,0.128,0.207,0.195,0.206,0.115,0.076,south,5.5,No
